User: anonymous   Login
Location: Civry
(47.2902°N, 4.6156°E)
Time: 16:57:32
(UTC+00:00)
Language:

Cosmos 1954 Rocket - Orbit

View from above orbital plane
View from above orbital plane
View from above satellite
View from above satellite

Ground track
Ground track

The orbit data is extracted from the following two-line orbital elements,

1 19257U 88053B   20196.11561874 -.00000009  00000-0  58708-5 0  9992
2 19257  74.0503 311.9597 0021502 284.2236 249.2806 14.37472466680118
Epoch (UTC): 14 July 2020 02:46:29
Eccentricity: 0.0021502
inclination: 74.0503°
perigee height: 751 km
apogee height: 782 km
right ascension of ascending node: 311.9597°
argument of perigee: 284.2236°
revolutions per day: 14.37472466
mean anomaly at epoch: 249.2806°
orbit number at epoch: 68011

The dashed part of the orbit path shows where the satellite is in the earth's shadow,  

DLR